OpenBCM V1.07b12 (Linux)

Packet Radio Mailbox

DB0FHN

[JN59NK Nuernberg]

 Login: GUEST





  
I6KZR  > KEPLER   05.02.03 21:08l 312 Lines 15308 Bytes #999 (0) @ WW
BID : 22294_IK6WID
Read: DB0FHN GUEST
Subj: 2L Keplerian Elements #036
Path: DB0FHN<DB0RGB<DB0FSG<DB0PV<DB0MRW<DB0ERF<DB0ROF<DB0AIS<DB0GV<DB0GE<
      LX0PAC<LX0HST<HA3PG<WB0TAX<IK6WID
Sent: 030205/1936Z @:IK6WID.#AP.IMAR.ITA.EU #:22294 [MONTE URANO]  FBB7.00i
From: I6KZR@IK6WID.#AP.IMAR.ITA.EU
To  : KEPLER@WW


OSCAR 7
1 07530U 74089B   03036.20437182 -.00000029  00000-0  10000-3 0  1473
2 07530 101.7637  84.1153 0012233 103.3442 256.8994 12.53564198291517
GOES 2
1 10061U 77048A   03028.56527598  .00000000  00000-0  10000-3 0   708
2 10061  14.1264  13.5931 0013180 196.1337 163.8523  0.99391768 38622
GOES 3
1 10953U 78062A   03034.97590790 -.00000101  00000-0  00000+0 0  9135
2 10953  13.4031  17.3427 0005282 341.2248  18.7961  1.00278771 43357
GOES 6
1 14050U 83041A   03035.09071563  .00000041  00000-0  10000-3 0  4172
2 14050  10.3815  35.5807 0003190 349.1855  10.8902  1.00298332130491
OSCAR 10
1 14129U 83058B   03034.35061340 -.00000148  00000-0  10000-3 0  9148
2 14129  25.9028 166.8331 6027722 324.8138   7.1176  2.05866763119756
OSCAR 11 (UoSAT 2)
1 14781U 84021B   03036.20647358  .00001356  00000-0  19544-3 0   625
2 14781  98.1148  10.0291 0008156 254.2201 105.8110 14.77951413 14264
NOAA 10
1 16969U 86073A   03035.94628177 +.00000162 +00000-0 +84658-4 0 06564
2 16969 098.7277 030.0849 0013084 123.7784 236.4644 14.27058153851969
GOES 7
1 17561U 87022A   03013.52827387  .00000116  00000-0  10000-3 0  8102
2 17561   7.5470  55.7264 0004064 288.6625 149.4031  1.00317770 41389
COSMOS 1861
1 18129U 87054A   03035.88026773 +.00000029 +00000-0 +15752-4 0 02029
2 18129 082.9252 156.6789 0010268 268.2163 091.7811 13.72698997782632
EUTELSAT 1-F4 (ECS 4)
1 18351U 87078B   03034.75810437 -.00000145  00000-0  00000+0 0   354
2 18351   7.1663  58.7051 0008809 189.3390 170.8013  0.98689317 42532
NOAA 11
1 19531U 88089A   03035.93078549 +.00000158 +00000-0 +10566-3 0 04910
2 19531 098.9028 117.3581 0010999 239.5809 120.4276 14.14530431740871
ASTRA 1A
1 19688U 88109B   03036.14901043  .00000032  00000-0  10000-3 0  5683
2 19688   1.3501  95.0505 0004165 217.0854 241.5432  1.00271926 32061
OSCAR 14 (UOSAT 3)
1 20437U 90005B   03035.65653891  .00000126  00000-0  63054-4 0  1571
2 20437  98.2744  79.9332 0009829 243.4234 116.5941 14.31232782680504
OSCAR 15 (UOSAT 4)
1 20438U 90005C   03035.94586436 +.00000098 +00000-0 +53759-4 0 07748
2 20438 098.2484 069.3893 0009028 254.5697 105.4488 14.30194025680215
OSCAR 16 (PACSAT)
1 20439U 90005D   03035.74362252  .00000163  00000-0  77035-4 0  8472
2 20439  98.3200  91.6198 0010146 248.9900 111.0192 14.31465874680552
OSCAR 17 (DOVE)
1 20440U 90005E   03035.73522377 +.00000153 +00000-0 +72907-4 0 07447
2 20440 098.3387 095.4722 0010219 248.6008 111.4076 14.31743071680623
OSCAR 18 (WEBERSAT)
1 20441U 90005F   03035.93489623 +.00000130 +00000-0 +64741-4 0 00069
2 20441 098.3382 094.8850 0010763 248.4084 111.5954 14.31547488680631
OSCAR 19 (LUSAT)
1 20442U 90005G   03035.70521164 +.00000155 +00000-0 +73648-4 0 09570
2 20442 098.3480 097.6608 0011074 249.7470 110.2522 14.31710479680653
JAS 1B (FUJI 2)
1 20480U 90013C   03035.90334722 -.00000029  00000-0  28938-5 0  4608
2 20480  99.0443   1.2180 0540880  34.8034 328.7225 12.83329030608761
HST
1 20580U 90037B   03036.64085252  .00002362  00000-0  18315-3 0  3187
2 20580  28.4666 122.0570 0004394 133.2864  15.3708 14.97759329500693
EUTELSAT 2-F1
1 20777U 90079B   03035.70942469 -.00000103  00000-0  10000-3 0   259
2 20777   3.4674  84.6836 0000968 309.4627  71.6910  1.00271017 25963
FENGYUN 1B
1 20788U 90081A   03036.18960332 -.00000171  00000-0 -82712-4 0  8744
2 20788  99.0257  18.5028 0015000 268.3081  91.6367 14.02135661635664
EUTELSAT 2-F2
1 21056U 91003B   03029.03428242  .00000114  00000-0  10000-3 0  6140
2 21056   2.6809  88.1556 0002992 259.4059 201.0206  1.00269955 31675
INFORMATOR 1
1 21087U 91006A   03035.87743491  .00000060  00000-0  46836-4 0  5968
2 21087  82.9439 327.5445 0034028 290.7216  69.0291 13.74924789603009
COSMOS 2123
1 21089U 91007A   03035.92712987 +.00000060 +00000-0 +47575-4 0 05122
2 21089 082.9214 191.4934 0028776 327.2700 032.6669 13.74402674601917
ASTRA 1B
1 21139U 91015A   03023.00000000  .00000124  00000-0  10000-3 0  1588
2 21139   0.0122 319.8851 0002995  65.1991 116.0459  1.00273184 31921
METEOSAT 5 (MOP 2)
1 21140U 91015B   03035.71123558  .00000017  00000-0  10000-3 0  7032
2 21140   5.5991  70.0443 0002401 149.2233 234.0078  1.00270689 45914
NOAA 12
1 21263U 91032A   03035.93285754 +.00000302 +00000-0 +14737-3 0 09623
2 21263 098.6242 025.7922 0013741 062.2559 298.0012 14.25070518609278
OSCAR 22 (UoSAT 5)
1 21575U 91050B   03036.57596801  .00000303  00000-0  11093-3 0  7180
2 21575  98.1394  29.3533 0007373 164.9534 195.1873 14.39144207606419
METEOR 3-5
1 21655U 91056A   03035.99933415 +.00000051 +00000-0 +10000-3 0 06272
2 21655 082.5529 048.4490 0012368 230.9883 129.0139 13.16979242551699
UARS
1 21701U 91063B   03036.39215953  .00000819  00000-0  79556-4 0  8172
2 21701  56.9814  85.3845 0005071 114.4543 245.6972 15.02829394623733
EUTELSAT 2-F3
1 21803U 91083A   03035.84342025  .00000124  00000-0  10000-3 0  5171
2 21803   2.5650  89.2869 0002552 251.4447 118.8809  1.00273334 36868
INMARSAT 2-F3
1 21814U 91084B   03035.42935104  .00000107  00000-0  10000-3 0  6109
2 21814   1.7170  57.8265 0002717 273.2550 175.5850  1.00272043 40754
INMARSAT 2-F4
1 21940U 92021B   03031.69489394 -.00000363  00000-0  10000-3 0  5677
2 21940   2.3651  19.1621 0001499 302.0485 168.4151  1.00268330 39506
EUTELSAT 2-F4
1 22028U 92041B   03028.97057872 -.00000106  00000-0  10000-3 0  3242
2 22028   1.6660  92.8484 0005860 216.6759 155.3765  1.00272003 31578
OSCAR 23 (KITSAT 1)
1 22077U 92052B   03036.19572964 -.00000037  00000-0  10000-3 0  1527
2 22077  66.0797 153.7301 0015405 277.6018  82.3251 12.86407954492586
ASTRA 1C
1 22653U 93031A   03023.00000000  .00000123  00000-0  10000-3 0  7844
2 22653   0.0122 319.8851 0002995  65.1991 116.0096  1.00273184 30626
METEOR 2-21
1 22782U 93055A   03035.57695756 -.00000019  00000-0 -31108-4 0  5090
2 22782  82.5451 225.9914 0022994  28.6686 331.5746 13.83530901476157
KITSAT B
1 22825U 93061C   03035.95817114 +.00000139 +00000-0 +71204-4 0 04979
2 22825 098.2756 066.3473 0007774 304.8820 055.1630 14.28937821487933
POSAT 1
1 22826U 93061D   03036.55065904  .00000155  00000-0  77058-4 0  3014
2 22826  98.2760  68.0189 0008400 302.7179  57.3207 14.29160596488060
ITAMSAT
1 22828U 93061F   03036.11412341  .00000121  00000-0  63314-4 0  4181
2 22828  98.2734  67.8691 0009312 281.4588  78.5545 14.29503189456208
EYESAT A
1 22829U 93061G   03035.98578757 +.00000213 +00000-0 +98783-4 0 04438
2 22829 098.2755 068.3465 0009040 281.7664 078.2506 14.29760638488116
METEOSAT 6
1 22912U 93073B   03035.85335043  .00000060  00000-0  00000+0 0  6666
2 22912   2.6438  82.4489 0000996 250.4997 118.3720  1.00278421 32165
GOES 8
1 23051U 94022A   03035.34072660 -.00000254 +00000-0 +00000-0 0 05928
2 23051 000.2632 103.4768 0001332 305.0461 133.0326 01.00281570039669
ASTRA 1D
1 23331U 94070A   03034.84223145  .00000133  00000-0  00000+0 0  8110
2 23331   0.0526 222.1035 0003596  39.5863 199.2686  1.00273941 30729
RADIO ROSTO
1 23439U 94085A   03035.98978404 -.00000041 +00000-0 +38971-4 0 06879
2 23439 064.8155 063.4409 0147099 117.8231 243.7689 11.27547572334067
NOAA 14
1 23455U 94089A   03035.95217105 +.00000144 +00000-0 +10197-3 0 05176
2 23455 099.1870 054.1605 0008568 268.2995 091.7195 14.13291689417552
HIMAWARI 5 (GMS 5)
1 23522U 95011B   03034.48300339 -.00000292  00000-0  00000+0 0   848
2 23522   1.7423  83.9187 0000441  22.1594 340.8744  1.00262471 28745
HOT BIRD 1
1 23537U 95016B   03013.80550721  .00000107  00000-0  10000-3 0  5332
2 23537   0.0070 236.2796 0008090  86.9786  92.5958  1.00275871 28611
GOES 9
1 23581U 95025A   03035.28895679  .00000124  00000-0  00000+0 0  5021
2 23581   0.3076 277.6817 0012972 253.7410 281.1623  1.00051271 28222
INMARSAT 3-F1
1 23839U 96020A   03035.83636825  .00000013  00000-0  00000+0 0  8626
2 23839   0.0617 340.8332 0004451 338.0823 180.6096  1.00271470 25071
ASTRA 1F
1 23842U 96021A   03023.00000000  .00000124  00000-0  10000-3 0  5576
2 23842   0.0122 319.8851 0002995  65.1991 116.0362  1.00273184 24851
JAS 2
1 24278U 96046B   03035.93332413 +.00000006 +00000-0 +45011-4 0 05781
2 24278 098.5336 189.0043 0349892 251.8626 104.4118 13.52870617319461
UNAMSAT
1 24305U 96052B   03035.71934273 +.00000205 +00000-0 +20364-3 0 06692
2 24305 082.9395 273.0301 0028732 239.5220 120.3089 13.73449793321585
INMARSAT 3-F2
1 24307U 96053A   03032.96911458 -.00000134  00000-0  00000+0 0   797
2 24307   0.0664  16.8716 0004612 287.1197 161.0756  1.00270670 23454
HOT BIRD 2
1 24665U 96067A   03022.98977813  .00000000  00000-0  10000-3 0  3404
2 24665   0.0347 162.8644 0004202 151.1719 177.1880  1.00271548 22995
INMARSAT 3-F3
1 24674U 96070A   03035.42499436  .00000035  00000-0  10000-3 0  9832
2 24674   0.0357 320.4141 0004330 344.4937 160.3632  1.00274457 22442
GOES 10
1 24786U 97019A   03034.69938454  .00000076  00000-0  00000+0 0  5304
2 24786   0.1013 107.3218 0003109 217.8905 285.6834  1.00287178 21183
INMARSAT 3-F4
1 24819U 97027A   03035.33036087 -.00000291  00000-0  10000-3 0  8750
2 24819   0.0882 290.8640 0003947  72.0402 196.0543  1.00273774 20866
FENGYUN 2A
1 24834U 97029A   03032.62147551 -.00000199  00000-0  00000+0 0  9525
2 24834   2.5306  88.6477 0003238 268.9222  83.0864  1.00260410 20663
HOT BIRD 3
1 24931U 97049A   03023.22766377  .00000000  00000-0  10000-3 0  4210
2 24931   0.0604 227.5595 0010036  81.3762 268.1866  1.00274291 19804
METEOSAT 7
1 24932U 97049B   03036.14549770 -.00000004  00000-0  00000+0 0  2423
2 24932   0.1892  55.0854 0001296 238.5661 253.7886  1.00277057 19882
